Location: Unspecified
(35.7250°N, 0.0000°E)
Time: 02:23:11
(UTC+00:00)

Vanguard 1 Rocket - Pass Details

Date: 19 June 2019
Orbit: 651 x 4225 km, 34.3° (Epoch: 16 July)

Event Time Altitude Azimuth Distance (km) Brightness Sun altitude
Rises 18:37:40 0° 251° (WSW) 7,104 12.7 6.6°
Reaches altitude 10° 18:43:12 10° 250° (WSW) 5,529 12.2 5.6°
Maximum altitude 18:57:29 74° 169° (S) 1,650 8.7 3.0°
Drops below altitude 10° 19:04:36 10° 86° (E) 2,913 9.5 1.7°
Sets 19:06:39 0° 84° (E) 3,629 10.0 1.3°
